Location: Unspecified
(51.0000°N, 12.0000°E)
Time: 23:12:13
(UTC+01:00)

ISS - Pass Details

Date: 29 November 2020
Orbit: 418 x 419 km, 51.6° (Epoch: 18 January)

Event Time Altitude Azimuth Distance (km) Brightness Sun altitude
Rises 17:14:41 0° 258° (WSW) 2,366 2.1 -9.8°
Reaches altitude 10° 17:16:47 10° 258° (WSW) 1,502 0.6 -10.1°
Maximum altitude 17:20:10 90° 299° (WNW) 425 -3.8 -10.6°
Enters shadow 17:22:40 17° 79° (E) 1,150 -2.2 -11.0°
